Whiteman AFB, MO

4:36 PM CST on December 05, 2019 (GMT -0600)
Whiteman Air Force Base

Weather History for KSZL - October, 2019

Change the Weather History Date:

Saturday, October 5, 2019

  Actual Average Record
Temperature  
Mean Temperature 62 °F -  
Max Temperature 68 °F 70 °F 88 °F (2007)
Min Temperature 56 °F 48 °F 36 °F (2012)
Degree Days  
Heating Degree Days 2    
Growing Degree Days 12 (Base 50)    
Moisture  
Dew Point 59 °F    
Average Humidity 85    
Maximum Humidity 100    
Minimum Humidity 64    
Precipitation  
Precipitation 0.01 in - - ()
Sea Level Pressure  
Sea Level Pressure 29.94 in    
Wind  
Wind Speed 8 mph (SSW)    
Max Wind Speed 18 mph    
Max Gust Speed 23 mph    
Visibility 10 miles    
Events Rain    
Averages and records for this station are not official NWS values.
T = Trace of Precipitation, MM = Missing Value Source: NWS Daily Summary

Daily Weather History Graph

Daily Weather History Graph

Search for Another Location

Airport or City:

Astronomy

Oct. 05, 2019 Rise Set
Actual Time 7:13 AM CDT 6:51 PM CDT
Civil Twilight 6:47 AM CDT 7:17 PM CDT
Nautical Twilight 6:16 AM CDT 7:48 PM CDT
Astronomical Twilight 5:45 AM CDT 8:19 PM CDT
Moon 2:36 PM CDT No Moon Set
Length of Visible Light 12h 30m
Length of Day
11h 37m
Waxing Crescent, 50% of the Moon is Illuminated
Oct 5
Waxing Crescent
Oct 13
Full
Oct 21
Last Quarter
Oct 27
New
Nov 4
First Quarter

Hourly Weather History & Observations

Time (CDT) Temp. Dew Point Humidity Pressure Visibility Wind Dir Wind Speed Gust Speed Precip Events Conditions
12:56 AM 57.4 °F 50.2 °F 77% 30.07 in 10.0 mi ESE 4.6 mph - N/A   Clear
1:56 AM 57.4 °F 49.8 °F 76% 30.06 in 10.0 mi SE 4.6 mph - N/A   Clear
2:56 AM 57.2 °F 50.4 °F 78% 30.05 in 10.0 mi SSE 4.6 mph - N/A   Clear
3:56 AM 57.6 °F 51.1 °F 79% 30.02 in 10.0 mi SE 3.5 mph - N/A   Clear
4:56 AM 58.1 °F 50.9 °F 77% 30.00 in 10.0 mi SSE 6.9 mph - N/A   Partly Cloudy
5:56 AM 58.5 °F 50.9 °F 76% 30.00 in 10.0 mi SSE 9.2 mph - N/A   Mostly Cloudy
6:56 AM 58.5 °F 51.3 °F 77% 29.99 in 10.0 mi SSE 5.8 mph - N/A   Mostly Cloudy
7:56 AM 58.8 °F 52.3 °F 79% 29.96 in 10.0 mi South 8.1 mph - N/A   Mostly Cloudy
8:56 AM 61.7 °F 53.2 °F 74% 29.94 in 10.0 mi South 13.8 mph - N/A   Mostly Cloudy
9:56 AM 64.8 °F 54.3 °F 69% 29.94 in 10.0 mi South 15.0 mph - N/A   Mostly Cloudy
10:41 AM 66.2 °F 55.4 °F 68% 29.94 in 1.2 mi SSW 13.8 mph 23.0 mph N/A   Haze
10:56 AM 66.2 °F 55.4 °F 68% 29.94 in 10.0 mi SSW 13.8 mph 20.7 mph N/A   Overcast
11:01 AM 68.0 °F 55.4 °F 64% 29.93 in 1.8 mi SSW 17.3 mph 21.9 mph N/A   Haze
11:06 AM 68.0 °F 57.2 °F 68% 29.92 in 10.0 mi South 18.4 mph - N/A   Overcast
11:56 AM 67.8 °F 56.5 °F 67% 29.93 in 10.0 mi SSW 12.7 mph - N/A   Overcast
12:42 PM 66.2 °F 60.8 °F 83% 29.91 in 10.0 mi SSW 12.7 mph - N/A Rain Light Rain
12:56 PM 65.5 °F 61.5 °F 87% 29.90 in 10.0 mi SSW 17.3 mph - 0.00 in Rain Light Rain
1:32 PM 64.4 °F 64.4 °F 100% 29.90 in 10.0 mi West 13.8 mph - N/A   Light Drizzle
1:55 PM 64.8 °F 64.2 °F 98% 29.91 in 10.0 mi WSW 9.2 mph - 0.01 in   Overcast
2:05 PM 64.4 °F 64.4 °F 100% 29.90 in 10.0 mi SW 10.4 mph - N/A Rain Light Rain
2:56 PM 64.2 °F 64.2 °F 100% 29.89 in 10.0 mi South 6.9 mph - 0.00 in   Mostly Cloudy
3:56 PM 66.4 °F 65.8 °F 98% 29.87 in 10.0 mi SSW 10.4 mph - N/A   Overcast
4:45 PM 68.0 °F 66.2 °F 94% 29.86 in 10.0 mi SW 8.1 mph - N/A   Mostly Cloudy
4:56 PM 67.3 °F 66.7 °F 98% 29.86 in 10.0 mi SW 9.2 mph - N/A   Overcast
5:26 PM 68.0 °F 68.0 °F 100% 29.87 in 10.0 mi SW 9.2 mph - N/A   Overcast
5:56 PM 68.2 °F 68.2 °F 100% 29.87 in 10.0 mi SW 6.9 mph - N/A   Mostly Cloudy
6:56 PM 65.1 °F 65.1 °F 100% 29.89 in 10.0 mi SW 5.8 mph - N/A   Mostly Cloudy
7:06 PM 66.2 °F 66.2 °F 100% 29.90 in 10.0 mi SW 4.6 mph - N/A   Mostly Cloudy
7:56 PM 67.5 °F 67.5 °F 100% 29.93 in 10.0 mi WSW 5.8 mph - N/A   Mostly Cloudy
8:56 PM 66.0 °F 65.7 °F 99% 29.94 in 10.0 mi NW 8.1 mph - N/A   Partly Cloudy
9:56 PM 62.6 °F 61.3 °F 96% 29.97 in 10.0 mi North 6.9 mph - N/A   Clear
10:56 PM 60.1 °F 55.6 °F 85% 30.00 in 10.0 mi NNW 9.2 mph - N/A   Clear
11:56 PM 56.7 °F 52.2 °F 85% 30.00 in 10.0 mi North 8.1 mph - N/A   Clear